LXJ230 KORD-KOSH

Flight info

Callsign LXJ230
Flight time 0h 31m
Altitude 22000
Route RAYNR BRTMN TAAYZ BAE
Aircraft C25C/M-BGS/L

Departure

Time 2026-04-26 20:45
Airport Chicago O'Hare International Airport (KORD)

Arrival

Time 2026-04-26 21:16
Airport Wittman Regional Airport (KOSH)
Time Latitude Longitude Altitude Speed Heading
2026-04-26 20:03 41.99155 -87.89114 664 ft 0 kts 188°
2026-04-26 20:33 41.99168 -87.89111 664 ft 2 kts 188°
2026-04-26 20:33 41.99185 -87.89108 664 ft 2 kts 188°
2026-04-26 20:34 41.99189 -87.89108 664 ft 0 kts 155°
2026-04-26 20:37 41.99182 -87.89099 664 ft 4 kts 128°
2026-04-26 20:37 41.99147 -87.89054 664 ft 10 kts 154°
2026-04-26 20:37 41.99062 -87.89046 664 ft 15 kts 182°
2026-04-26 20:37 41.98999 -87.89106 664 ft 9 kts 267°
2026-04-26 20:38 41.99000 -87.89192 664 ft 9 kts 274°
2026-04-26 20:38 41.99000 -87.89278 664 ft 9 kts 268°
2026-04-26 20:38 41.98999 -87.89365 664 ft 9 kts 270°
2026-04-26 20:38 41.98999 -87.89456 664 ft 10 kts 270°
2026-04-26 20:39 41.98998 -87.89555 663 ft 11 kts 269°
2026-04-26 20:39 41.98998 -87.89656 663 ft 10 kts 269°
2026-04-26 20:39 41.98997 -87.89747 663 ft 10 kts 270°
2026-04-26 20:39 41.98997 -87.89841 663 ft 10 kts 269°
2026-04-26 20:40 41.98996 -87.89943 663 ft 12 kts 270°
2026-04-26 20:40 41.98996 -87.90063 663 ft 14 kts 269°
2026-04-26 20:40 41.98996 -87.90203 663 ft 18 kts 270°
2026-04-26 20:40 41.98997 -87.90402 664 ft 23 kts 270°
2026-04-26 20:41 41.98997 -87.90613 664 ft 18 kts 270°
2026-04-26 20:41 41.98995 -87.90770 664 ft 17 kts 269°
2026-04-26 20:41 41.98995 -87.90923 664 ft 16 kts 269°
2026-04-26 20:41 41.98996 -87.91074 663 ft 16 kts 271°
2026-04-26 20:42 41.98996 -87.91223 663 ft 16 kts 270°
2026-04-26 20:42 41.98995 -87.91367 663 ft 15 kts 270°
2026-04-26 20:42 41.98995 -87.91508 663 ft 15 kts 270°
2026-04-26 20:42 41.98995 -87.91645 663 ft 14 kts 270°
2026-04-26 20:43 41.98997 -87.91777 663 ft 14 kts 270°
2026-04-26 20:43 41.98997 -87.91904 664 ft 13 kts 269°
2026-04-26 20:43 41.98997 -87.92027 664 ft 13 kts 270°
2026-04-26 20:43 41.98996 -87.92145 664 ft 12 kts 269°
2026-04-26 20:44 41.98994 -87.92264 664 ft 14 kts 266°
2026-04-26 20:44 41.98956 -87.92382 665 ft 14 kts 207°
2026-04-26 20:44 41.98856 -87.92405 665 ft 16 kts 170°
2026-04-26 20:44 41.98830 -87.92236 665 ft 37 kts 90°
2026-04-26 20:45 41.98833 -87.91466 676 ft 127 kts 90°
2026-04-26 20:45 41.98815 -87.90075 1030 ft 169 kts 91°
2026-04-26 20:45 41.99060 -87.88446 1724 ft 193 kts 63°
2026-04-26 20:45 42.00041 -87.86980 2328 ft 229 kts 33°
2026-04-26 20:46 42.01601 -87.86289 3120 ft 247 kts
2026-04-26 20:46 42.03289 -87.86360 3953 ft 246 kts 356°
2026-04-26 20:46 42.05028 -87.86469 4592 ft 256 kts 356°
2026-04-26 20:46 42.06789 -87.86616 4983 ft 251 kts 355°
2026-04-26 20:47 42.08530 -87.86646 5418 ft 252 kts
2026-04-26 20:47 42.09700 -87.86364 6095 ft 252 kts 11°
2026-04-26 20:47 42.11988 -87.85748 7384 ft 260 kts 11°
2026-04-26 20:47 42.13803 -87.85270 8242 ft 267 kts
2026-04-26 20:48 42.15636 -87.85000 9314 ft 267 kts
2026-04-26 20:48 42.17509 -87.84763 10210 ft 271 kts
2026-04-26 20:48 42.19353 -87.84429 11193 ft 270 kts
2026-04-26 20:48 42.21214 -87.84039 12131 ft 272 kts
2026-04-26 20:49 42.23115 -87.83684 12925 ft 279 kts
2026-04-26 20:49 42.25061 -87.83303 13697 ft 285 kts
2026-04-26 20:49 42.27048 -87.83031 14457 ft 292 kts
2026-04-26 20:49 42.29127 -87.82839 14641 ft 301 kts
2026-04-26 20:50 42.31226 -87.82622 14898 ft 307 kts
2026-04-26 20:50 42.33389 -87.82382 15586 ft 314 kts
2026-04-26 20:50 42.35573 -87.82082 16563 ft 317 kts
2026-04-26 20:50 42.37764 -87.81779 17687 ft 316 kts
2026-04-26 20:51 42.39967 -87.81512 18729 ft 319 kts
2026-04-26 20:51 42.42207 -87.81195 19553 ft 329 kts
2026-04-26 20:51 42.44521 -87.80932 20315 ft 338 kts
2026-04-26 20:51 42.46881 -87.80623 21244 ft 340 kts
2026-04-26 20:52 42.49298 -87.80438 21617 ft 359 kts 359°
2026-04-26 20:52 42.51864 -87.80707 21763 ft 380 kts 353°
2026-04-26 20:52 42.54515 -87.81116 21915 ft 397 kts 354°
2026-04-26 20:52 42.57312 -87.81351 21957 ft 406 kts 358°
2026-04-26 20:53 42.60138 -87.81391 21982 ft 405 kts 359°
2026-04-26 20:53 42.62955 -87.81528 21996 ft 404 kts 356°
2026-04-26 20:53 42.65762 -87.81740 21999 ft 403 kts 356°
2026-04-26 20:53 42.68565 -87.81920 21954 ft 404 kts 357°
2026-04-26 20:54 42.71364 -87.82310 21872 ft 405 kts 345°
2026-04-26 20:54 42.73920 -87.83888 21860 ft 404 kts 328°
2026-04-26 20:54 42.76117 -87.86269 21868 ft 407 kts 319°
2026-04-26 20:54 42.78286 -87.88819 21875 ft 413 kts 318°
2026-04-26 20:55 42.80400 -87.91380 21853 ft 412 kts 318°
2026-04-26 20:55 42.82587 -87.93953 21676 ft 409 kts 319°
2026-04-26 20:55 42.84747 -87.96475 21453 ft 408 kts 319°
2026-04-26 20:55 42.86872 -87.98970 21233 ft 408 kts 319°
2026-04-26 20:56 42.89010 -88.01503 21009 ft 408 kts 319°
2026-04-26 20:56 42.91149 -88.04047 20785 ft 407 kts 319°
2026-04-26 20:56 42.93291 -88.06575 20561 ft 407 kts 319°
2026-04-26 20:56 42.95427 -88.09104 20336 ft 406 kts 319°
2026-04-26 20:57 42.97564 -88.11629 20112 ft 406 kts 319°
2026-04-26 20:57 42.99690 -88.14162 19888 ft 405 kts 319°
2026-04-26 20:57 43.01810 -88.16671 19664 ft 402 kts 319°
2026-04-26 20:57 43.03907 -88.19169 19438 ft 399 kts 319°
2026-04-26 20:58 43.05997 -88.21650 19212 ft 396 kts 319°
2026-04-26 20:58 43.08071 -88.24127 18944 ft 395 kts 319°
2026-04-26 20:58 43.10146 -88.26596 18619 ft 395 kts 319°
2026-04-26 20:58 43.12197 -88.29047 18214 ft 387 kts 318°
2026-04-26 20:59 43.14199 -88.31434 17762 ft 378 kts 319°
2026-04-26 20:59 43.16164 -88.33786 17308 ft 372 kts 318°
2026-04-26 20:59 43.18076 -88.36071 16861 ft 367 kts 319°
2026-04-26 20:59 43.20000 -88.38375 16410 ft 367 kts 318°
2026-04-26 21:00 43.21925 -88.40683 15956 ft 366 kts 319°
2026-04-26 21:00 43.23841 -88.42982 15507 ft 366 kts 318°
2026-04-26 21:00 43.25753 -88.45277 15060 ft 365 kts 319°
2026-04-26 21:00 43.27660 -88.47569 14608 ft 364 kts 318°
2026-04-26 21:01 43.29564 -88.49859 14158 ft 363 kts 319°
2026-04-26 21:01 43.31464 -88.52146 13707 ft 363 kts 318°
2026-04-26 21:01 43.33377 -88.54394 13258 ft 362 kts 323°
2026-04-26 21:01 43.35573 -88.56067 12800 ft 361 kts 337°
2026-04-26 21:02 43.37967 -88.57054 12345 ft 358 kts 349°
2026-04-26 21:02 43.40436 -88.57333 11887 ft 355 kts
2026-04-26 21:02 43.42849 -88.56916 11441 ft 354 kts 11°
2026-04-26 21:02 43.45231 -88.56113 10993 ft 352 kts 14°
2026-04-26 21:03 43.47582 -88.55203 10543 ft 350 kts 16°
2026-04-26 21:03 43.49912 -88.54249 10095 ft 349 kts 16°
2026-04-26 21:03 43.52237 -88.53330 9644 ft 347 kts 13°
2026-04-26 21:03 43.54613 -88.52951 9188 ft 340 kts
2026-04-26 21:04 43.56923 -88.52988 8701 ft 325 kts 358°
2026-04-26 21:04 43.59094 -88.53079 8272 ft 315 kts 357°
2026-04-26 21:04 43.61269 -88.53224 7783 ft 309 kts 356°
2026-04-26 21:04 43.63337 -88.53471 7405 ft 288 kts 354°
2026-04-26 21:05 43.65286 -88.53818 7114 ft 276 kts 354°
2026-04-26 21:05 43.67166 -88.54078 6911 ft 268 kts 356°
2026-04-26 21:05 43.69010 -88.54165 6721 ft 262 kts 359°
2026-04-26 21:05 43.70819 -88.54183 6535 ft 257 kts
2026-04-26 21:06 43.71996 -88.54057 6354 ft 255 kts 10°
2026-04-26 21:06 43.74172 -88.52892 6095 ft 254 kts 38°
2026-04-26 21:06 43.75362 -88.51130 5975 ft 249 kts 60°
2026-04-26 21:06 43.75989 -88.48944 5922 ft 242 kts 79°
2026-04-26 21:07 43.76251 -88.46657 5926 ft 241 kts 83°
2026-04-26 21:07 43.76467 -88.44358 5940 ft 242 kts 84°
2026-04-26 21:07 43.76916 -88.42109 5907 ft 245 kts 61°
2026-04-26 21:07 43.78170 -88.40520 5864 ft 252 kts 28°
2026-04-26 21:08 43.79830 -88.39687 5843 ft 254 kts 17°
2026-04-26 21:08 43.81578 -88.39211 5740 ft 259 kts
2026-04-26 21:08 43.83388 -88.39119 5531 ft 262 kts
2026-04-26 21:08 43.85194 -88.39102 5412 ft 258 kts
2026-04-26 21:09 43.86984 -88.39105 5278 ft 256 kts
2026-04-26 21:09 43.88773 -88.39152 5004 ft 259 kts
2026-04-26 21:09 43.90577 -88.39238 4783 ft 257 kts
2026-04-26 21:09 43.92306 -88.39327 4692 ft 245 kts
2026-04-26 21:10 43.93979 -88.39408 4509 ft 237 kts
2026-04-26 21:10 43.95614 -88.39511 4286 ft 233 kts
2026-04-26 21:10 43.97228 -88.39613 4047 ft 231 kts
2026-04-26 21:10 43.98813 -88.39704 3911 ft 227 kts
2026-04-26 21:11 44.00365 -88.39743 3794 ft 221 kts
2026-04-26 21:11 44.01899 -88.39754 3647 ft 219 kts
2026-04-26 21:11 44.02901 -88.39776 3546 ft 215 kts
2026-04-26 21:11 44.04879 -88.40093 3314 ft 215 kts 346°
2026-04-26 21:12 44.05789 -88.40635 3226 ft 215 kts 332°
2026-04-26 21:12 44.07119 -88.42443 3094 ft 197 kts 300°
2026-04-26 21:12 44.07603 -88.44164 2937 ft 186 kts 278°
2026-04-26 21:12 44.07677 -88.45322 2866 ft 179 kts 266°
2026-04-26 21:13 44.07722 -88.47063 2735 ft 180 kts 271°
2026-04-26 21:13 44.07811 -88.48730 2583 ft 166 kts 265°
2026-04-26 21:13 44.07621 -88.50253 2415 ft 157 kts 243°
2026-04-26 21:13 44.07068 -88.51504 2280 ft 150 kts 225°
2026-04-26 21:14 44.06401 -88.52617 2142 ft 148 kts 220°
2026-04-26 21:14 44.05656 -88.53603 1927 ft 145 kts 215°
2026-04-26 21:14 44.04907 -88.54397 1794 ft 129 kts 205°
2026-04-26 21:14 44.04125 -88.54894 1749 ft 121 kts 193°
2026-04-26 21:15 44.03343 -88.55247 1713 ft 118 kts 189°
2026-04-26 21:15 44.02544 -88.55493 1612 ft 117 kts 182°
2026-04-26 21:15 44.01737 -88.55610 1466 ft 116 kts 177°
2026-04-26 21:15 44.00920 -88.55633 1346 ft 116 kts 175°
2026-04-26 21:16 44.00106 -88.55628 1211 ft 115 kts 173°
2026-04-26 21:16 43.99335 -88.55649 994 ft 105 kts 171°
2026-04-26 21:16 43.98629 -88.55644 783 ft 96 kts 176°
2026-04-26 21:16 43.98111 -88.55651 777 ft 44 kts 172°
2026-04-26 21:17 43.97900 -88.55689 779 ft 20 kts 243°
2026-04-26 21:17 43.97895 -88.55771 777 ft 0 kts 275°
2026-04-26 21:17 43.97896 -88.55776 777 ft 6 kts 270°
2026-04-26 21:17 43.97893 -88.55901 776 ft 15 kts 269°
2026-04-26 21:18 43.97887 -88.56047 775 ft 15 kts 235°
2026-04-26 21:18 43.97856 -88.56032 775 ft 0 kts